User: anonymous   Login
Location: Aressy
(43.2833°N, 0.3167°W)
Time: 22:35:03
(UTC+00:00)
Language:

Cosmos 2082 Rocket - Orbit

View from above orbital plane
View from above orbital plane
View from above satellite
View from above satellite

Ground track
Ground track

The orbit data is extracted from the following two-line orbital elements,

1 20625U 90046B   21110.38421037  .00000273  00000-0  16645-3 0  9994
2 20625  70.9982  83.9543 0012959 142.8401 217.3621 14.14667972596021
Epoch (UTC): 20 April 2021 09:13:15
Eccentricity: 0.0012959
inclination: 70.9982°
perigee height: 834 km
apogee height: 853 km
right ascension of ascending node: 83.9543°
argument of perigee: 142.8401°
revolutions per day: 14.14667972
mean anomaly at epoch: 217.3621°
orbit number at epoch: 59602

The dashed part of the orbit path shows where the satellite is in the earth's shadow,  

DLR